User: anonymous   Login
Location: Unspecified
(0.0000°N, 0.0000°E)
Time: 13:37:06
(UTC+00:00)
Language:

NOAA 10 - Orbit

View from above orbital plane
View from above orbital plane
View from above satellite
View from above satellite

Ground track
Ground track

The orbit data is extracted from the following two-line orbital elements,

1 16969U 86073A   18112.93824743 +.00000005 +00000-0 +19165-4 0  9999
2 16969 098.4651 117.0401 0013410 086.0614 329.4096 14.28039888644383
Epoch (UTC): 22 April 2018 22:31:04
Eccentricity: 0.0013410
inclination: 98.4651°
perigee height: 788 km
apogee height: 808 km
right ascension of ascending node: 117.0401°
argument of perigee: 86.0614°
revolutions per day: 14.28039888
mean anomaly at epoch: 329.4096°
orbit number at epoch: 64438

The dashed part of the orbit path shows where the satellite is in the earth's shadow,  

DLR